Wetbulb
63.05 63.78 62.70 63.68 64.02 64.16 64.21 62.96 63.36 64.65 64.72 64.36 63.09 62.33 61.37 61.59 63.29 64.03 64.53 64.30 65.23 67.03 67.79 67.68 67.15 66.01 64.88 64.39 64.08 63.62 62.93 62.59 62.47 62.18 61.91 61.74 61.59 61.57 61.12 60.69 60.78 60.11 60.08
63.12 62.59 61.54 63.11 63.55 63.84 64.01 63.60 62.46 63.35 64.18 64.21 62.93 62.21 60.96 61.44 62.27 62.64 62.93 62.98 63.03 64.43 66.02 66.71 66.42 65.60 64.81 63.34 63.01 62.79 62.57 62.18 61.98 61.80 61.70 61.70 60.62 61.13 61.16 60.62 60.05 59.70 59.55
63.07 62.12 61.55 61.74 63.28 63.64 63.59 63.99 62.72 62.56 62.37 63.64 62.85 61.41 61.41 61.01 61.50 61.53 61.55 61.50 61.57 61.64 62.90 64.34 64.68 64.62 63.62 63.30 62.55 61.50 61.68 61.32 61.62 61.43 61.26 60.40 60.74 60.55 60.25 59.99 59.65 59.32 59.32
63.94 62.96 62.39 61.60 62.74 64.23 63.80 63.08 62.55 61.48 60.98 61.29 61.60 60.81 60.78 60.51 60.96 61.05 60.93 60.73 59.92 60.36 60.95 62.14 62.98 63.87 63.59 63.29 62.38 61.83 60.54 60.61 61.02 61.11 60.72 60.45 60.24 60.27 59.82 59.46 59.22 59.16 59.20
64.24 63.44 62.89 62.88 62.87 63.25 63.29 62.40 61.79 61.36 60.16 60.43 61.40 61.06 59.85 59.57 59.82 60.94 59.92 59.53 58.62 58.30 58.52 60.83 61.30 61.27 62.51 63.05 61.66 61.94 61.76 61.17 60.65 60.51 60.26 60.37 60.38 60.08 59.63 59.24 58.99 58.97 58.69
63.40 62.96 62.57 62.27 63.57 63.00 62.02 61.72 60.86 60.29 60.29 60.81 61.94 60.88 57.22 58.84 59.65 59.54 59.20 59.23 57.84 57.53 57.59 58.57 59.34 58.87 60.34 62.17 62.14 61.79 61.86 61.40 60.95 60.82 60.60 60.40 60.17 59.74 59.50 58.99 58.79 58.73 58.58
63.21 62.71 61.31 62.11 63.52 61.93 61.23 60.49 60.07 59.60 60.03 61.26 60.34 57.50 56.03 57.92 58.17 58.21 58.13 57.94 57.17 57.43 57.10 58.24 58.02 57.70 58.92 60.70 61.44 61.27 61.97 62.01 61.75 61.31 60.87 60.19 59.91 60.10 59.52 59.03 58.90 58.82 58.67
61.82 61.75 61.69 61.65 62.42 60.86 60.81 60.53 59.95 59.27 59.12 60.93 57.76 55.62 51.90 53.46 54.62 56.61 56.72 56.66 56.14 56.61 57.33 57.85 57.74 57.30 57.46 58.02 57.93 61.23 61.57 62.04 61.73 61.25 61.15 61.60 61.05 60.12 59.50 59.44 59.18 58.90 58.77
61.24 61.50 62.17 62.40 61.74 60.96 60.36 60.88 60.16 59.28 58.15 59.19 59.14 55.38 51.29 49.96 52.95 53.89 53.77 55.74 54.53 55.53 56.76 57.56 57.91 57.50 56.82 57.27 58.17 58.82 58.49 58.97 61.91 62.26 62.32 61.78 61.53 61.12 60.10 59.44 59.26 59.12 59.09
60.59 61.27 62.22 61.77 61.44 61.65 60.75 60.28 60.51 59.91 59.89 57.16 57.68 58.51 56.02 54.88 50.82 49.94 52.80 54.16 55.57 55.12 55.53 56.65 57.20 56.87 56.80 56.78 57.34 56.34 55.48 55.10 57.48 61.40 62.53 62.53 62.04 61.70 61.38 61.07 60.71 60.32 60.02
59.87 61.35 61.75 61.66 61.27 61.08 60.94 60.33 60.35 59.79 59.95 58.02 56.79 55.78 54.68 54.91 53.87 51.49 50.19 51.62 53.43 55.57 56.16 56.18 56.66 56.60 56.55 56.71 56.28 55.95 53.98 53.53 54.36 57.90 60.74 62.38 62.65 62.35 62.09 62.03 61.77 61.61 61.57
59.83 60.61 61.59 61.65 61.39 60.98 60.82 60.62 60.74 59.86 59.60 59.11 57.93 56.48 55.12 53.87 53.00 52.28 50.92 50.40 52.16 52.71 54.24 55.86 56.01 56.39 56.67 56.30 56.89 54.81 52.84 52.15 52.96 55.45 57.64 59.56 61.28 62.55 62.79 62.64 62.73 62.66 62.42
59.61 60.43 60.71 60.77 60.83 60.95 60.83 60.96 60.59 60.05 59.69 58.57 57.67 56.77 56.59 55.56 56.06 54.91 53.71 51.86 51.66 52.67 53.15 54.34 56.16 55.91 56.35 56.41 56.64 54.35 53.55 50.71 51.20 52.92 54.98 56.48 57.86 59.38 60.62 61.86 62.89 63.18 63.07
58.72 58.92 59.79 60.19 60.22 60.36 60.56 60.81 60.65 60.07 59.68 59.00 58.08 57.59 57.30 57.19 56.35 56.16 54.20 52.55 50.51 51.44 52.93 53.56 54.42 54.87 55.25 55.89 55.28 52.24 55.93 50.02 49.79 50.37 51.72 53.38 54.67 55.77 56.75 57.95 59.21 60.18 61.23
57.95 57.49 57.86 58.14 58.95 59.32 59.52 59.47 59.91 59.18 59.32 58.97 58.17 58.03 57.77 57.55 56.98 56.53 55.62 54.81 52.58 49.73 51.18 52.22 53.92 56.96 57.08 56.94 55.43 56.08 55.42 51.15 49.27 48.76 48.99 50.41 52.10 53.43 54.04 54.77 55.50 56.35 57.54
58.42 57.63 57.80 57.92 58.42 58.54 58.64 58.76 58.95 59.06 58.54 58.58 58.33 57.38 56.76 56.94 56.49 56.02 55.31 54.63 53.50 51.50 49.09 51.86 52.92 54.05 56.55 58.58 56.91 58.36 57.83 53.61 49.46 47.73 47.25 47.94 48.92 50.62 51.75 52.57 53.19 53.66 54.63
58.39 57.89 57.53 57.66 57.24 57.58 58.14 57.72 57.60 58.00 57.95 57.80 57.84 57.26 56.18 56.34 56.06 55.26 54.55 53.92 52.99 52.29 50.21 51.35 52.47 53.78 53.62 54.15 56.76 57.71 57.98 58.05 57.77 50.28 47.93 48.09 48.64 48.93 49.36 48.14 48.78 49.62 50.28
58.18 58.09 57.88 57.28 57.22 57.04 57.06 57.56 57.14 57.30 57.10 56.60 56.62 56.24 55.57 56.20 55.49 55.38 54.44 53.41 52.78 52.84 50.74 49.50 51.59 52.28 52.73 53.74 54.74 54.86 55.45 57.16 57.28 53.25 46.47 44.34 44.70 44.48 42.28 42.37 42.58 42.88 43.57
58.50 58.18 57.76 56.96 56.76 56.68 56.68 56.56 57.20 57.20 56.94 57.19 56.75 55.98 55.43 55.57 54.47 53.87 53.48 53.28 53.56 53.98 53.28 52.55 52.03 52.44 52.27 53.09 53.26 53.10 53.06 53.44 54.12 44.25 41.75 41.33 41.46 41.51 41.19 40.93 40.97 41.55 41.82
51.32 49.70 49.36 49.01 49.42 49.80 52.82 56.15 56.54 56.48 56.60 56.56 56.46 56.58 56.00 55.78 55.09 54.57 53.74 53.23 53.19 52.98 53.28 52.40 51.97 51.40 51.96 51.98 51.97 51.12 49.97 51.68 50.23 45.50 41.30 40.31 40.15 39.74 39.76 39.35 39.74 39.66 39.72
44.26 44.45 43.71 42.66 42.52 42.26 41.63 47.96 54.16 55.37 54.59 47.56 45.58 43.38 41.61 41.02 39.91 42.80 53.11 51.37 52.76 52.30 51.90 51.48 51.74 51.62 50.68 50.79 47.54 45.66 48.12 47.95 40.97 39.89 43.99 41.06 37.89 36.54 36.75 37.40 37.51 37.96 37.80
39.08 39.11 38.60 39.76 39.74 39.48 38.36 39.63 44.94 45.37 45.20 43.01 40.25 39.68 39.55 37.30 35.93 35.54 35.35 34.31 35.09 42.80 49.84 50.37 47.43 45.26 38.60 35.49 37.38 38.86 41.43 44.50 43.76 34.03 37.82 34.32 34.64 33.13 34.11 35.21 36.07 36.15 36.36
36.22 35.96 36.95 37.12 35.86 35.84 35.96 36.40 36.94 37.53 36.69 37.03 37.32 37.30 37.43 36.69 35.47 34.06 33.17 32.81 32.33 32.68 32.78 38.30 33.50 31.78 31.46 30.42 31.48 35.74 37.91 38.81 33.77 30.17 33.24 31.78 31.74 30.00 32.85 34.08 34.59 34.49 34.26
33.57 33.84 34.99 35.82 34.55 34.42 34.42 34.33 33.96 33.57 32.41 32.23 32.95 34.40 35.60 36.50 34.21 33.29 31.72 30.38 30.06 30.27 30.52 30.94 29.92 29.51 29.91 30.33 30.50 32.24 32.96 31.50 29.73 28.73 29.05 29.20 30.46 28.41 29.93 30.23 32.84 32.67 32.55
31.90 32.04 33.17 33.91 33.38 33.06 33.53 33.22 32.58 31.47 30.83 31.02 31.97 32.40 33.93 33.35 33.57 33.65 30.52 28.83 28.64 29.40 32.06 31.78 31.11 30.08 29.54 29.73 29.50 27.84 24.62 31.10 27.91 25.71 25.70 27.68 27.57 21.83 15.53 16.36 20.24 30.69 31.32
30.33 30.52 30.35 31.56 32.91 32.53 33.08 32.48 31.74 30.49 29.08 29.46 30.61 30.96 31.71 31.39 32.00 31.52 29.70 28.70 27.02 27.65 28.01 27.97 27.56 25.85 23.24 23.25 26.03 20.24 18.44 19.90 24.52 12.83 19.70 25.35 22.07 27.56 25.33 15.25 17.41 19.13 19.42
MSLP
1010.80 1011.20 1011.82 1012.15 1012.54 1012.95 1013.30 1013.67 1013.80 1014.28 1014.67 1015.34 1015.70 1015.57 1016.04 1016.45 1016.87 1017.23 1017.73 1017.86 1018.13 1018.46 1018.77 1019.11 1019.50 1020.07 1020.63 1021.18 1021.54 1021.90 1022.30 1022.65 1022.85 1023.10 1023.50 1023.74 1024.03 1024.22 1024.46 1024.74 1025.04 1025.34 1025.52
1010.44 1010.97 1011.66 1012.02 1012.37 1012.76 1013.26 1013.59 1013.89 1014.26 1014.64 1014.94 1015.56 1015.72 1015.93 1016.38 1016.85 1017.15 1017.80 1018.24 1018.41 1018.62 1018.89 1019.20 1019.46 1020.10 1020.59 1021.18 1021.63 1021.99 1022.26 1022.64 1023.02 1023.30 1023.68 1023.94 1024.26 1024.45 1024.66 1024.81 1025.05 1025.31 1025.48
1009.96 1010.62 1011.39 1011.71 1012.16 1012.48 1013.25 1013.58 1014.08 1014.36 1014.82 1015.10 1015.52 1015.97 1016.44 1016.37 1016.75 1017.04 1017.96 1018.38 1018.60 1018.90 1019.09 1019.42 1019.55 1020.09 1020.65 1021.22 1021.76 1022.19 1022.48 1022.79 1023.08 1023.39 1023.76 1024.06 1024.29 1024.61 1024.85 1024.96 1025.16 1025.41 1025.51
1009.64 1010.38 1011.06 1011.44 1011.84 1012.29 1012.92 1013.53 1014.02 1014.33 1014.75 1014.96 1015.47 1016.06 1016.61 1016.67 1016.84 1017.19 1018.01 1018.26 1018.62 1018.97 1019.22 1019.54 1019.75 1020.21 1020.68 1021.20 1021.58 1022.14 1022.51 1022.86 1023.18 1023.43 1023.84 1024.09 1024.35 1024.58 1024.81 1025.10 1025.22 1025.29 1025.44
1009.29 1009.92 1010.53 1010.99 1011.47 1012.19 1012.77 1013.38 1013.72 1013.86 1014.53 1014.95 1015.36 1015.97 1016.63 1016.65 1016.74 1017.37 1017.88 1018.30 1018.64 1019.04 1019.34 1019.49 1019.85 1020.34 1020.67 1021.02 1021.42 1021.93 1022.45 1022.81 1023.11 1023.31 1023.73 1024.04 1024.36 1024.64 1024.90 1025.11 1025.33 1025.47 1025.56
1008.88 1009.62 1010.17 1010.57 1010.99 1011.89 1012.54 1013.03 1013.40 1013.71 1014.16 1014.64 1015.19 1015.99 1016.36 1016.44 1016.62 1017.32 1017.74 1018.24 1018.73 1018.94 1019.35 1019.57 1019.93 1020.34 1020.69 1020.94 1021.45 1021.92 1022.35 1022.71 1022.93 1023.27 1023.61 1023.94 1024.24 1024.59 1024.84 1025.00 1025.19 1025.41 1025.55
1008.58 1009.33 1009.83 1010.36 1010.80 1011.47 1012.05 1012.63 1013.15 1013.63 1014.33 1014.65 1015.33 1015.99 1016.53 1016.50 1016.86 1017.23 1017.75 1018.06 1018.53 1018.80 1019.29 1019.56 1019.95 1020.31 1020.59 1020.81 1021.15 1021.76 1022.12 1022.44 1022.63 1022.98 1023.40 1023.76 1024.03 1024.34 1024.61 1024.81 1024.91 1025.06 1025.19
1008.38 1008.95 1009.40 1010.07 1010.51 1011.24 1011.91 1012.26 1012.57 1013.25 1013.88 1014.30 1014.76 1015.23 1016.63 1017.36 1017.62 1017.38 1017.65 1018.00 1018.21 1018.60 1019.18 1019.44 1019.80 1020.23 1020.59 1020.77 1021.01 1021.42 1021.79 1022.07 1022.41 1022.76 1023.08 1023.45 1023.80 1024.04 1024.20 1024.40 1024.57 1024.70 1024.85
1008.27 1008.73 1009.11 1009.67 1010.24 1010.96 1011.30 1011.65 1012.10 1012.57 1013.23 1013.80 1014.19 1014.09 1015.53 1015.89 1016.83 1017.54 1017.59 1017.78 1018.12 1018.59 1018.82 1019.19 1019.56 1019.88 1020.29 1020.61 1020.90 1021.19 1021.48 1021.87 1022.08 1022.33 1022.61 1022.92 1023.28 1023.62 1023.79 1024.02 1024.13 1024.26 1024.41
1008.28 1008.51 1008.93 1009.44 1009.95 1010.50 1010.92 1011.24 1011.60 1012.03 1012.35 1013.17 1013.69 1013.67 1014.14 1014.40 1015.23 1017.31 1017.69 1017.68 1017.82 1018.31 1018.60 1019.00 1019.27 1019.56 1019.92 1020.33 1020.70 1020.89 1021.10 1021.44 1021.74 1021.88 1022.11 1022.34 1022.67 1023.01 1023.27 1023.48 1023.66 1023.75 1023.88
1008.08 1008.31 1008.72 1009.20 1009.59 1010.02 1010.51 1011.06 1011.29 1011.62 1011.91 1012.23 1012.54 1013.19 1014.06 1014.63 1015.01 1015.63 1016.90 1017.59 1017.84 1017.94 1018.13 1018.44 1018.75 1019.02 1019.40 1019.71 1020.20 1020.38 1020.56 1020.96 1021.33 1021.56 1021.76 1021.93 1022.12 1022.38 1022.68 1022.88 1023.08 1023.24 1023.38
1007.87 1008.03 1008.42 1008.83 1009.23 1009.64 1010.04 1010.50 1010.93 1011.32 1011.50 1011.78 1012.19 1012.84 1013.38 1014.11 1014.76 1015.15 1016.06 1016.85 1017.15 1017.56 1017.73 1018.06 1018.34 1018.58 1018.84 1019.12 1019.45 1019.72 1020.00 1020.32 1020.64 1020.90 1021.16 1021.34 1021.48 1021.71 1022.00 1022.20 1022.40 1022.54 1022.62
1007.46 1007.66 1008.18 1008.58 1008.89 1009.26 1009.59 1010.04 1010.35 1010.78 1011.04 1011.25 1011.87 1012.54 1012.75 1013.51 1013.87 1014.63 1015.69 1016.36 1016.70 1017.27 1017.57 1017.59 1017.69 1018.00 1018.29 1018.55 1018.79 1019.05 1019.38 1019.73 1019.98 1020.32 1020.59 1020.72 1020.95 1021.22 1021.42 1021.51 1021.59 1021.65 1021.70
1006.94 1007.40 1007.89 1008.28 1008.61 1008.87 1009.30 1009.59 1009.75 1010.19 1010.41 1010.94 1011.66 1012.33 1012.92 1013.50 1013.71 1014.00 1014.80 1015.64 1016.69 1017.12 1017.19 1017.03 1017.19 1017.46 1017.74 1017.89 1018.18 1018.53 1018.85 1019.16 1019.46 1019.78 1019.99 1020.11 1020.31 1020.52 1020.63 1020.61 1020.73 1020.78 1020.78
1006.89 1007.20 1007.75 1008.18 1008.45 1008.71 1008.91 1008.93 1008.85 1009.18 1009.95 1010.34 1011.19 1012.10 1012.88 1013.36 1013.53 1013.83 1014.13 1014.68 1015.52 1016.79 1017.02 1016.92 1017.06 1016.81 1016.99 1017.27 1017.67 1018.18 1018.51 1018.69 1018.91 1019.15 1019.30 1019.37 1019.52 1019.65 1019.76 1019.84 1020.02 1020.16 1020.14
1006.91 1007.25 1007.72 1008.11 1008.40 1008.47 1008.60 1008.67 1008.54 1008.75 1009.21 1010.03 1010.90 1011.99 1012.64 1013.20 1013.58 1013.89 1013.95 1014.49 1015.02 1015.71 1016.67 1016.72 1017.02 1016.80 1016.89 1017.06 1017.39 1017.54 1017.90 1018.20 1018.29 1018.41 1018.51 1018.71 1018.87 1018.92 1018.90 1019.06 1019.10 1019.09 1019.41
1006.85 1007.26 1007.59 1007.86 1007.99 1008.17 1008.32 1008.36 1008.35 1008.69 1009.20 1009.84 1010.69 1011.62 1012.39 1012.95 1013.61 1014.13 1014.34 1014.47 1015.11 1015.69 1016.43 1016.79 1016.74 1016.65 1016.82 1017.10 1017.15 1017.44 1017.46 1017.57 1017.52 1017.57 1017.86 1018.09 1018.34 1018.55 1018.97 1018.97 1019.03 1019.00 1019.11
1006.82 1007.19 1007.54 1007.76 1007.89 1008.12 1008.20 1008.21 1008.40 1008.73 1009.04 1009.78 1010.28 1011.46 1012.11 1012.92 1013.67 1014.22 1014.51 1014.85 1015.33 1015.67 1016.25 1016.88 1016.94 1017.09 1016.68 1017.06 1017.24 1017.21 1017.13 1017.17 1017.32 1017.30 1017.91 1018.37 1018.35 1018.53 1018.97 1019.09 1019.11 1019.18 1019.16
1006.99 1007.30 1007.56 1007.76 1007.93 1008.14 1008.32 1008.33 1008.31 1008.69 1009.18 1009.65 1010.33 1011.24 1012.05 1012.88 1013.54 1013.88 1014.25 1014.73 1015.35 1015.49 1015.81 1016.23 1016.19 1016.20 1016.43 1016.67 1016.84 1016.94 1017.00 1017.05 1017.19 1018.34 1018.67 1018.95 1019.11 1019.19 1019.23 1019.42 1019.49 1019.55 1019.57
1007.65 1008.02 1008.28 1008.41 1008.43 1008.51 1008.48 1008.50 1008.55 1008.76 1009.15 1009.88 1010.44 1011.38 1012.12 1012.65 1013.11 1013.56 1014.06 1014.47 1014.83 1015.05 1015.40 1015.94 1015.91 1016.02 1016.25 1016.30 1016.60 1016.88 1017.07 1017.28 1017.88 1018.46 1019.16 1019.61 1019.59 1019.88 1020.03 1020.00 1020.05 1019.81 1019.85
1008.86 1009.12 1009.26 1009.46 1009.56 1009.51 1009.57 1009.21 1008.88 1009.27 1009.80 1010.88 1011.76 1012.50 1013.09 1013.30 1013.30 1013.63 1013.87 1014.37 1014.76 1015.44 1015.73 1016.00 1016.11 1016.21 1016.49 1016.72 1017.32 1017.76 1017.64 1017.96 1018.98 1019.31 1019.35 1019.57 1020.24 1020.56 1020.57 1020.69 1020.77 1020.61 1020.57
1009.99 1010.18 1010.48 1010.56 1010.49 1010.55 1010.37 1009.88 1009.59 1010.27 1010.97 1011.71 1012.51 1013.39 1013.87 1014.18 1014.54 1014.84 1015.26 1015.71 1015.86 1016.02 1016.03 1016.09 1016.56 1017.09 1017.98 1018.50 1018.71 1018.71 1018.68 1018.43 1019.31 1020.22 1020.18 1020.80 1020.97 1021.17 1021.47 1021.32 1021.14 1021.51 1020.82
1011.00 1011.32 1011.43 1011.52 1011.75 1011.82 1011.43 1011.23 1011.05 1011.67 1012.30 1012.94 1013.30 1013.95 1014.35 1015.09 1015.33 1015.88 1016.43 1016.54 1016.87 1017.00 1016.99 1016.92 1017.89 1018.73 1019.14 1019.49 1019.69 1019.21 1019.21 1019.45 1020.38 1021.14 1020.64 1021.36 1021.65 1021.85 1021.88 1021.91 1021.71 1021.83 1021.54
1011.87 1012.30 1012.51 1012.67 1012.73 1013.10 1013.00 1012.48 1012.43 1013.08 1013.71 1014.39 1014.76 1015.01 1015.16 1015.47 1016.16 1016.51 1016.92 1017.35 1017.93 1018.30 1018.58 1018.73 1019.27 1019.88 1020.11 1020.14 1019.83 1019.81 1019.89 1020.32 1021.02 1021.51 1021.39 1021.69 1022.21 1022.42 1022.31 1022.25 1022.13 1022.01 1021.80
1013.04 1013.36 1013.47 1013.76 1013.92 1014.16 1014.21 1014.00 1013.52 1014.25 1014.81 1015.44 1015.89 1015.94 1015.92 1016.32 1016.92 1017.15 1017.36 1018.11 1018.84 1019.47 1019.80 1019.91 1020.15 1020.30 1020.35 1020.32 1020.09 1020.18 1020.63 1020.75 1021.72 1022.31 1022.26 1022.16 1022.30 1022.77 1022.94 1023.12 1022.46 1022.07 1021.86
1014.21 1014.79 1014.49 1014.88 1015.19 1015.23 1015.40 1015.18 1015.06 1015.11 1015.85 1016.52 1016.89 1017.21 1017.25 1017.37 1017.76 1018.08 1018.16 1018.73 1019.61 1020.50 1020.56 1020.69 1020.94 1021.05 1021.15 1021.08 1020.81 1021.16 1021.22 1021.74 1022.43 1023.21 1022.93 1022.86 1022.84 1022.81 1023.05 1023.17 1022.77 1022.33 1022.17
Wind_Speed
8 7 6 7 6 6 7 6 8 8 9 8 6 9 6 8 9 5 5 12 12 13 18 19 19 18 16 14 14 16 16 15 15 15 15 14 13 12 12 13 12 11 11
8 7 7 7 6 7 7 7 7 7 7 7 4 5 8 9 9 8 6 6 11 11 12 16 18 17 18 16 15 16 15 15 14 15 14 13 13 12 12 13 13 12 12
9 9 7 7 8 7 8 7 4 3 3 5 7 4 3 9 9 10 7 5 7 10 11 12 14 14 16 17 15 13 14 14 14 15 14 14 13 14 13 13 13 12 12
10 9 8 7 7 7 7 7 8 6 4 4 7 6 4 6 10 10 8 6 5 5 7 11 13 16 16 18 18 16 16 14 14 15 14 14 14 14 14 13 12 12 12
11 9 8 8 9 8 8 8 6 6 4 4 7 6 6 7 9 8 9 8 6 5 4 10 12 13 15 17 17 17 16 16 16 15 15 15 14 13 13 12 12 11 11
10 8 7 9 9 8 7 7 8 3 4 6 7 7 4 7 8 8 10 8 6 7 5 6 7 7 13 15 15 16 16 16 16 15 15 15 14 13 13 13 12 12 11
11 10 6 8 9 8 9 9 6 9 4 5 6 4 2 5 9 8 7 8 8 8 6 6 5 4 6 14 16 16 18 18 17 17 16 15 15 14 14 14 14 14 14
7 9 10 9 9 7 10 10 9 6 4 7 3 9 4 3 1 6 7 8 9 6 6 6 6 6 5 5 7 17 17 17 17 17 16 14 15 16 16 16 15 15 15
7 8 9 9 9 8 9 10 9 12 8 5 10 4 5 5 7 1 4 6 6 6 7 7 8 7 6 5 7 11 13 12 15 17 16 16 16 17 17 17 17 17 17
7 9 9 9 9 8 9 9 9 8 8 9 8 2 2 4 6 4 1 4 7 7 7 6 8 7 8 6 9 11 14 14 14 14 17 18 18 18 18 19 18 18 19
6 8 10 11 10 7 7 9 9 9 8 9 9 6 3 3 2 4 5 3 0 8 7 8 8 8 9 9 8 9 14 15 14 14 14 15 19 19 20 20 19 19 19
5 7 8 8 8 8 10 9 11 11 10 10 5 7 8 7 6 4 3 4 8 3 4 6 7 7 8 8 10 14 16 17 17 17 17 18 17 16 19 20 20 20 21
5 7 8 8 8 9 9 10 10 10 12 12 10 6 5 4 8 4 4 2 5 2 4 4 7 7 7 7 9 14 16 17 17 17 18 18 17 18 18 18 19 21 22
6 6 5 6 7 8 9 11 10 10 10 11 13 8 5 3 3 4 5 5 2 1 1 4 3 6 6 7 7 12 8 15 15 16 17 17 17 18 19 20 21 22 23
4 6 4 5 6 7 8 9 9 11 12 13 12 9 8 3 3 3 4 4 5 4 6 3 2 4 4 4 5 6 6 9 15 16 18 18 19 20 21 19 19 20 21
7 7 7 7 8 7 8 8 8 10 12 10 10 8 5 4 4 2 3 4 3 4 3 2 3 2 2 2 5 5 5 10 14 17 17 16 17 18 19 19 21 19 21
7 8 8 6 5 5 5 6 5 8 13 10 10 9 7 6 5 3 3 5 4 3 3 1 1 2 3 1 2 4 6 6 6 11 13 15 15 14 12 8 10 11 12
7 7 6 6 5 4 4 6 8 7 12 11 11 9 7 6 8 7 5 5 4 4 4 5 5 4 5 3 5 5 4 4 4 8 9 9 6 9 14 13 12 11 10
5 5 5 5 5 5 4 4 6 10 8 11 11 9 8 9 8 5 4 5 4 3 3 4 4 3 4 3 5 4 4 4 2 19 20 18 18 17 16 14 13 11 11
8 7 7 6 5 5 4 3 6 7 8 7 8 7 7 9 7 6 5 5 4 2 1 4 6 5 3 3 3 3 3 3 3 8 16 13 14 18 16 16 15 14 14
9 8 8 7 6 6 4 4 4 6 8 11 11 10 9 11 14 8 2 3 4 6 6 6 6 3 2 2 2 2 1 1 5 6 6 6 6 6 7 12 11 14 14
10 10 9 8 8 6 8 9 10 11 11 11 11 10 10 15 18 21 23 22 12 1 2 2 2 2 4 3 3 2 2 1 2 6 4 4 4 5 4 4 11 10 12
10 10 10 10 11 10 17 17 17 11 11 10 9 8 8 8 11 12 17 20 20 21 14 3 4 3 2 1 2 1 3 3 3 5 2 3 2 4 3 4 10 9 10
11 9 10 10 11 11 17 19 21 14 13 12 10 8 5 8 9 10 12 14 14 13 11 9 10 7 5 2 1 1 2 5 4 4 5 3 1 1 1 2 6 6 7
12 11 11 11 11 11 16 16 16 13 14 14 11 10 9 11 14 15 13 14 12 10 16 20 18 16 17 16 8 3 2 4 2 3 6 2 1 1 0 2 3 2 2
12 10 14 13 15 11 15 16 13 10 13 10 11 12 19 13 15 13 11 11 12 7 7 8 6 9 11 11 17 7 2 4 3 3 4 1 3 1 1 2 2 2 3
Wind_Direction
165 156 169 168 162 161 164 161 162 179 177 211 203 167 152 146 155 152 158 152 155 171 174 175 162 158 155 154 157 157 159 156 152 155 150 148 150 144 143 144 144 147 149
159 162 160 163 171 174 176 166 173 183 188 196 168 171 150 149 148 147 145 159 158 166 180 180 168 166 166 173 172 164 162 161 164 159 155 153 160 154 155 154 158 161 162
159 158 165 162 172 175 177 168 175 175 181 163 123 115 168 148 147 140 148 154 158 163 170 181 169 169 169 170 167 174 171 162 170 165 163 163 171 164 161 165 169 174 175
163 160 171 171 166 170 179 186 186 175 181 160 136 134 173 166 153 146 153 155 156 159 168 166 162 165 170 173 170 181 186 180 178 177 175 175 174 175 177 183 183 182 183
168 167 176 171 166 176 186 187 186 167 158 146 135 141 187 172 154 154 161 161 161 154 159 167 164 162 173 176 184 181 187 187 193 188 190 187 188 189 190 192 195 197 199
164 169 172 164 167 172 178 187 183 165 169 172 153 155 218 167 155 163 171 160 172 159 165 163 170 175 182 181 174 192 194 195 196 199 198 198 199 202 204 204 206 210 212
172 171 158 159 163 173 187 183 165 164 162 170 144 130 37 161 168 165 168 164 173 175 169 165 166 166 194 180 173 197 207 204 201 203 205 209 209 208 212 214 215 217 220
169 167 164 171 171 169 180 180 171 168 160 175 162 148 153 109 230 172 166 171 178 168 174 178 173 173 182 182 181 192 210 215 209 211 212 210 214 216 219 221 223 225 227
162 163 173 174 173 185 187 182 182 179 181 168 190 164 154 176 140 150 192 180 162 172 184 184 188 188 184 182 184 198 202 215 219 214 216 214 216 220 223 226 228 230 233
166 163 170 173 173 182 184 190 180 183 171 174 165 183 40 134 150 144 184 199 169 185 181 191 192 191 189 191 197 196 202 211 219 224 220 216 218 222 225 227 230 231 234
165 168 173 179 179 184 179 196 187 179 177 168 174 151 133 125 97 145 149 181 245 201 194 186 193 197 198 197 201 211 204 208 218 225 229 231 226 225 228 230 233 235 238
186 173 179 181 180 187 188 190 190 188 179 176 170 162 155 165 176 137 106 165 188 178 181 190 191 201 203 200 204 207 204 208 212 219 225 229 232 233 232 233 237 238 239
187 179 180 187 191 194 191 190 189 195 186 173 170 171 136 159 182 141 136 182 192 162 165 192 201 197 202 198 208 203 209 210 214 221 225 229 232 235 238 239 240 240 241
165 152 163 181 195 193 198 200 198 190 186 174 167 167 161 170 181 148 153 142 124 139 145 215 182 195 197 195 205 201 210 209 216 220 225 229 230 232 234 234 238 241 244
154 150 171 207 208 209 205 212 205 177 181 168 168 163 184 146 151 149 160 141 146 148 207 223 180 207 189 181 173 177 212 208 217 222 225 228 230 232 236 237 239 244 247
154 156 183 199 211 201 202 203 183 168 165 165 162 151 141 144 123 136 129 126 124 124 146 165 205 111 147 194 175 198 229 217 213 224 231 233 231 236 235 236 238 240 247
164 174 191 181 172 183 185 185 175 162 178 158 157 156 139 137 149 143 124 103 106 114 132 246 147 38 14 329 245 244 231 231 248 247 234 238 244 257 275 274 260 261 266
170 174 172 177 170 168 174 181 184 175 165 171 153 147 147 142 157 162 158 138 137 155 136 191 201 206 202 211 241 221 222 220 224 243 30 52 65 84 77 70 60 54 46
146 158 162 174 171 164 165 161 165 175 158 174 164 159 158 166 178 167 155 148 160 164 177 206 249 170 208 192 218 230 222 245 256 95 86 72 74 76 71 63 60 56 53
82 74 64 63 64 69 81 158 150 139 146 146 153 158 168 182 177 175 183 179 165 172 194 241 260 252 202 207 188 243 265 65 86 86 69 84 74 62 60 61 59 63 56
68 67 77 62 54 55 30 21 123 129 108 91 85 82 69 77 72 68 133 109 163 193 212 225 236 237 215 69 40 5 9 39 67 11 91 52 56 52 52 53 56 57 60
63 61 53 51 48 46 31 43 94 94 91 103 107 101 96 84 77 79 81 74 62 70 170 180 71 65 65 46 8 343 314 78 174 40 342 69 51 69 49 48 62 52 66
66 58 58 62 56 51 64 66 74 79 81 78 85 97 97 101 90 91 80 75 63 57 53 61 97 59 95 27 297 330 37 33 53 9 324 94 57 78 36 38 56 52 54
72 66 59 63 70 61 65 76 81 79 76 67 62 61 90 111 96 100 91 78 70 61 54 68 78 75 58 347 190 16 73 103 104 47 2 96 10 75 35 15 18 28 35
64 63 59 58 63 64 70 74 87 81 78 72 62 57 70 92 107 108 100 97 88 78 79 82 82 77 63 52 51 103 55 149 90 28 10 24 60 117 64 299 284 328 0
67 57 62 53 55 62 69 76 79 89 85 76 69 67 72 87 93 97 101 106 97 87 89 82 68 51 45 43 50 53 71 103 93 33 296 53 354 314 198 273 277 297 329